KD2VWU Weather Reports


time (UTC)temp
C
wind
direction
speed
KPH
gust
KPH
rain 1hr
cm
rain 24hr
cm
rain mn
cm
humidity
%
barometer
mb
20260904035735 22 74 0.0 0.0 0.00 0.66 0.66 99 1008.5
20260904035230 22 74 0.0 0.0 0.00 0.66 0.66 99 1008.6
20260904034729 22 70 0.0 0.0 0.00 0.66 0.66 99 1008.7
20260904034225 22 67 0.0 0.0 0.00 0.66 0.66 99 1008.5
20260904033720 22 69 0.0 0.0 0.00 0.66 0.66 99 1008.4
20260904033217 22 75 0.0 0.0 0.00 0.66 0.66 99 1008.6
20260904032713 22 71 0.0 0.0 0.00 0.66 0.66 99 1008.4
20260904032212 22 75 0.0 0.0 0.00 0.66 0.66 99 1008.5
20260904031712 22 68 0.0 0.0 0.00 0.66 0.66 99 1008.6
20260904031207 22 74 0.0 0.0 0.00 0.66 0.66 99 1008.7
20260904030703 22 77 0.0 0.0 0.00 0.66 0.66 99 1008.8
20260904030158 22 75 0.0 0.0 0.00 0.66 0.66 99 1008.9
20260904025654 22 55 0.0 0.0 0.00 0.66 0.66 99 1009.1
20260904025149 22 61 0.0 0.0 0.00 0.66 0.66 99 1009.2
20260904024645 22 61 0.0 0.0 0.00 0.66 0.66 99 1009.1
20260904024140 22 54 0.0 0.0 0.00 0.66 0.66 99 1009.0
20260904023636 22 75 0.0 0.0 0.00 0.66 0.66 99 1009.2
20260904023131 22 76 0.0 0.0 0.00 0.66 0.66 99 1009.1
20260904022625 22 90 0.0 0.0 0.00 0.66 0.66 99 1009.2
20260904022123 22 104 0.0 0.0 0.00 0.66 0.66 99 1009.2
20260904021618 22 85 0.0 0.0 0.00 0.66 0.66 99 1009.6
20260904021113 22 95 0.0 0.0 0.00 0.66 0.66 99 1009.3
20260904020608 22 90 0.0 0.0 0.00 0.66 0.66 99 1009.4
20260904020057 22 76 0.0 0.0 0.00 0.66 0.66 99 1009.4
20260904015551 22 68 0.0 0.0 0.00 0.66 0.66 99 1009.6
20260904015050 22 77 0.0 0.0 0.00 0.66 0.66 99 1009.8
20260904014544 22 106 0.0 1.6 0.00 0.66 0.66 99 1009.8
20260904014040 22 77 0.0 0.0 0.00 0.66 0.66 99 1009.5
20260904013536 22 69 0.0 0.0 0.00 0.66 0.66 99 1009.5
20260904013033 23 75 0.0 0.0 0.00 0.66 0.66 99 1009.2
20260904012533 23 75 0.0 0.0 0.00 0.66 0.66 99 1009.4
20260904012032 22 75 0.0 0.0 0.00 0.66 0.66 99 1009.7
20260904011526 23 75 0.0 0.0 0.00 0.66 0.66 99 1009.6
20260904011021 22 76 0.0 0.0 0.00 0.66 0.66 99 1009.6
20260904010518 23 76 0.0 0.0 0.00 0.66 0.66 99 1009.6
20260904010013 23 76 0.0 0.0 0.00 0.66 0.66 99 1009.4
20260904005508 23 77 0.0 0.0 0.00 0.66 0.66 99 1009.6
20260904005003 23 77 0.0 0.0 0.00 0.66 0.66 99 1009.4
20260904004459 23 78 0.0 0.0 0.00 0.66 0.66 99 1009.6
20260904003959 23 77 0.0 0.0 0.00 0.66 0.66 99 1009.4
20260904003455 23 77 0.0 0.0 0.00 0.66 0.66 99 1009.5
20260904002950 23 79 0.0 0.0 0.00 0.66 0.66 99 1009.4
20260904002446 23 101 0.0 1.6 0.00 0.66 0.66 99 1009.2
20260904001945 23 77 0.0 0.0 0.00 0.66 0.66 98 1009.4
20260904001441 23 124 1.6 1.6 0.00 0.66 0.66 98 1009.3
20260904000935 23 103 0.0 1.6 0.00 0.66 0.66 98 1009.3
20260904000435 23 88 0.0 0.0 0.00 0.66 0.66 98 1009.1
20260903235930 23 116 0.0 1.6 0.00 0.66 0.66 98 1009.1
20260903235426 23 134 1.6 1.6 0.00 0.66 0.66 98 1009.1
20260903234926 23 110 0.0 1.6 0.00 0.66 0.66 98 1009.0
20260903234421 23 106 0.0 0.0 0.00 0.66 0.66 98 1008.9
20260903233918 24 87 0.0 0.0 0.00 0.66 0.66 97 1008.9
20260903233413 24 85 0.0 0.0 0.00 0.66 0.66 97 1008.8
20260903232908 24 106 0.0 0.0 0.00 0.66 0.66 97 1009.0
20260903232403 24 93 0.0 0.0 0.00 0.66 0.66 96 1008.8
20260903231902 24 97 0.0 0.0 0.00 0.66 0.66 96 1008.9
20260903231357 24 102 0.0 1.6 0.00 0.66 0.66 95 1008.7
20260903230853 24 97 0.0 0.0 0.00 0.66 0.66 95 1008.8
20260903230348 24 84 0.0 0.0 0.00 0.66 0.66 95 1008.8
20260903225844 25 97 0.0 0.0 0.00 0.66 0.66 96 1008.7
20260903225340 25 113 0.0 0.0 0.00 0.66 0.66 95 1008.6
20260903224836 25 113 1.6 1.6 0.00 0.66 0.66 94 1008.7
20260903224332 25 97 0.0 0.0 0.00 0.66 0.66 93 1009.0
20260903223828 25 83 0.0 0.0 0.00 0.66 0.66 93 1008.8
20260903223326 25 118 0.0 1.6 0.00 0.66 0.66 93 1008.9
20260903222821 26 88 0.0 0.0 0.00 0.66 0.66 91 1008.9
20260903222321 26 84 0.0 0.0 0.00 0.66 0.66 91 1009.0
20260903221815 26 109 0.0 1.6 0.00 0.66 0.66 90 1009.2
20260903221314 26 145 0.0 1.6 0.00 0.66 0.66 89 1009.2
20260903220813 27 83 0.0 0.0 0.00 0.66 0.66 88 1009.4
20260903220307 27 137 0.0 1.6 0.00 0.66 0.66 87 1009.3
20260903215805 27 76 0.0 0.0 0.00 0.66 0.66 85 1008.9
20260903215305 27 84 0.0 0.0 0.00 0.66 0.66 87 1009.2
20260903214800 26 276 0.0 1.6 0.00 0.66 0.66 87 1009.0
20260903214255 26 111 1.6 1.6 0.00 0.66 0.66 89 1009.0
20260903213750 26 91 0.0 0.0 0.00 0.66 0.66 90 1008.9
20260903213245 27 58 0.0 0.0 0.00 0.66 0.66 89 1009.0
20260903212736 26 78 0.0 0.0 0.00 0.66 0.66 87 1009.0
20260903212233 27 64 0.0 0.0 0.00 0.66 0.66 86 1008.8
20260903211731 26 91 0.0 0.0 0.00 0.66 0.66 85 1008.7
20260903211228 27 72 0.0 0.0 0.00 0.66 0.66 86 1008.7
20260903210723 27 215 1.6 1.6 0.00 0.66 0.66 84 1008.9
20260903210219 27 102 0.0 1.6 0.00 0.66 0.66 84 1008.6
20260903205713 27 19 0.0 0.0 0.00 0.66 0.66 83 1008.9
20260903205212 27 113 0.0 0.0 0.00 0.66 0.66 83 1008.8
20260903204708 27 127 1.6 1.6 0.00 0.66 0.66 84 1009.0
20260903204204 27 36 0.0 1.6 0.00 0.66 0.66 82 1008.7
20260903203659 27 27 1.6 1.6 0.00 0.66 0.66 83 1009.1
20260903203154 27 184 1.6 1.6 0.00 0.66 0.66 84 1009.1
20260903202649 27 79 0.0 0.0 0.00 0.66 0.66 81 1009.0
20260903202144 27 46 0.0 0.0 0.00 0.66 0.66 88 1009.1
20260903201638 26 66 0.0 0.0 0.00 0.66 0.66 89 1009.3
20260903201137 26 66 0.0 0.0 0.00 0.66 0.66 91 1009.0
20260903200632 26 66 0.0 0.0 0.00 0.66 0.66 89 1009.1
20260903200127 26 67 0.0 0.0 0.00 0.66 0.66 88 1009.4
20260903195624 26 48 0.0 0.0 0.00 0.66 0.66 86 1009.3
20260903195119 26 51 0.0 0.0 0.00 0.66 0.66 85 1009.2
20260903194615 26 65 0.0 0.0 0.00 0.66 0.66 83 1009.3
20260903194114 27 24 1.6 1.6 0.00 0.66 0.66 84 1009.2
20260903193611 27 14 0.0 0.0 0.00 0.66 0.66 83 1009.5
20260903193106 27 10 3.2 3.2 0.00 0.66 0.66 82 1009.3
20260903192603 27 99 1.6 1.6 0.00 0.66 0.66 81 1009.3
20260903192057 27 168 1.6 1.6 0.00 0.66 0.66 82 1009.5
20260903191554 27 53 0.0 1.6 0.00 0.66 0.66 81 1009.3
20260903191048 27 67 0.0 0.0 0.00 0.66 0.66 82 1009.3
20260903190542 27 22 0.0 1.6 0.00 0.66 0.66 84 1009.5
20260903190042 27 34 0.0 0.0 0.00 0.66 0.66 85 1009.6
20260903185537 27 6 0.0 0.0 0.00 0.66 0.66 84 1009.8
20260903185032 27 77 0.0 0.0 0.00 0.66 0.66 83 1009.6
20260903184529 27 158 0.0 1.6 0.00 0.66 0.66 81 1009.8
20260903184023 27 342 0.0 1.6 0.00 0.66 0.66 82 1009.8
20260903183523 27 121 0.0 1.6 0.00 0.66 0.66 85 1009.7
20260903183018 27 20 1.6 1.6 0.00 0.66 0.66 81 1009.7
20260903182516 27 87 1.6 1.6 0.00 0.66 0.66 80 1009.8
20260903182013 27 21 1.6 1.6 0.00 0.66 0.66 84 1009.9
20260903181506 27 47 1.6 3.2 0.00 0.66 0.66 80 1009.6
20260903181006 26 349 1.6 1.6 0.00 0.66 0.66 82 1010.1
20260903180501 26 17 3.2 4.8 0.00 0.66 0.66 83 1010.1
20260903180000 27 83 1.6 3.2 0.00 0.66 0.66 84 1010.2
20260903175454 27 82 1.6 1.6 0.00 0.66 0.66 84 1010.3
20260903174953 27 3 1.6 1.6 0.00 0.66 0.66 85 1010.4
20260903174449 26 218 1.6 1.6 0.00 0.66 0.66 86 1010.6
20260903173948 26 23 1.6 1.6 0.00 0.66 0.66 84 1010.4
20260903173444 26 234 1.6 4.8 0.00 0.66 0.66 87 1010.2
20260903172939 26 186 0.0 0.0 0.00 0.66 0.66 91 1010.4
20260903172434 25 38 0.0 0.0 0.00 0.66 0.66 90 1010.7
20260903171930 24 8 1.6 1.6 0.00 0.66 0.66 90 1010.7
20260903171425 24 60 0.0 0.0 0.00 0.66 0.66 91 1010.8
20260903170925 24 53 0.0 0.0 0.00 0.66 0.66 90 1010.9
20260903170419 24 187 1.6 1.6 0.00 0.66 0.66 89 1010.8
20260903165918 25 192 1.6 1.6 0.00 0.66 0.66 89 1010.9
20260903165413 24 74 0.0 1.6 0.00 0.66 0.66 87 1010.9
20260903164907 25 20 1.6 1.6 0.00 0.66 0.66 88 1010.8
20260903164402 25 73 3.2 4.8 0.00 0.66 0.66 86 1010.8
20260903163902 25 223 1.6 1.6 0.00 0.66 0.66 88 1010.6
20260903163358 25 146 1.6 1.6 0.00 0.66 0.66 89 1010.8
20260903162854 25 206 1.6 1.6 0.00 0.66 0.66 89 1011.1
20260903162350 24 268 3.2 3.2 0.00 0.66 0.66 90 1011.0
20260903161846 23 350 1.6 1.6 0.00 0.66 0.66 92 1011.0
20260903161341 24 226 1.6 1.6 0.00 0.66 0.66 94 1011.1
20260903160837 23 133 1.6 1.6 0.00 0.66 0.66 94 1011.0
20260903160335 23 14 0.0 1.6 0.00 0.66 0.66 94 1011.3
20260903155834 23 188 1.6 3.2 0.00 0.66 0.66 94 1011.4
20260903155330 23 210 1.6 1.6 0.00 0.66 0.66 94 1011.7
20260903154825 23 231 1.6 4.8 0.00 0.66 0.66 95 1011.8
20260903154321 23 303 0.0 1.6 0.00 0.66 0.66 98 1011.6
20260903153816 22 77 0.0 1.6 0.00 0.66 0.66 99 1011.4
20260903153312 22 282 1.6 3.2 0.00 0.66 0.66 99 1011.2
20260903152808 22 356 0.0 0.0 0.00 0.66 0.66 99 1011.4
20260903152306 21 287 1.6 3.2 0.00 0.66 0.66 99 1011.6
20260903151758 22 173 3.2 3.2 0.00 0.66 0.66 99 1011.6
20260903151254 21 96 1.6 1.6 0.00 0.66 0.66 99 1011.8
20260903150754 21 80 0.0 1.6 0.00 0.66 0.66 99 1011.6
20260903150248 21 308 0.0 1.6 0.00 0.66 0.66 99 1011.9
20260903145744 21 273 1.6 3.2 0.00 0.66 0.66 99 1011.6
20260903145239 21 310 0.0 1.6 0.00 0.66 0.66 99 1011.6
20260903144737 21 73 0.0 0.0 0.00 0.66 0.66 99 1011.6
20260903144233 21 270 1.6 1.6 0.00 0.66 0.66 99 1012.1
20260903143728 21 306 0.0 1.6 0.00 0.66 0.66 99 1011.8
20260903143225 20 119 1.6 1.6 0.00 0.66 0.66 99 1011.6
20260903142720 20 206 0.0 1.6 0.00 0.66 0.66 99 1011.9
20260903142217 20 49 0.0 0.0 0.00 0.66 0.66 99 1011.8
20260903141712 20 306 3.2 3.2 0.00 0.66 0.66 99 1011.7
20260903141207 21 358 1.6 1.6 0.00 0.66 0.66 99 1011.5
20260903140703 20 264 1.6 1.6 0.00 0.66 0.66 99 1011.6
20260903140158 20 68 0.0 0.0 0.00 0.66 0.66 99 1011.6
20260903135653 20 217 0.0 1.6 0.00 0.66 0.66 99 1011.7
20260903135148 20 175 0.0 0.0 0.00 0.66 0.66 99 1011.7
20260903134647 20 339 0.0 0.0 0.00 0.66 0.66 99 1011.8
20260903134143 20 35 0.0 0.0 0.00 0.66 0.66 99 1011.7
20260903133641 20 38 0.0 0.0 0.00 0.66 0.66 99 1011.7
20260903133136 20 354 0.0 0.0 0.00 0.66 0.66 99 1011.8
20260903132630 20 92 0.0 0.0 0.00 0.66 0.66 99 1011.8
20260903132125 20 323 0.0 0.0 0.00 0.66 0.66 99 1011.7
20260903131620 20 352 0.0 0.0 0.00 0.66 0.66 99 1011.8
20260903131119 20 44 0.0 0.0 0.00 0.66 0.66 99 1011.7
20260903130616 20 250 1.6 3.2 0.00 0.66 0.66 99 1011.7
20260903130109 20 352 0.0 0.0 0.00 0.66 0.66 99 1012.0
20260903125607 20 135 0.0 0.0 0.00 0.66 0.66 99 1012.1
20260903125103 20 36 0.0 1.6 0.00 0.66 0.66 99 1012.4
20260903124603 20 146 0.0 0.0 0.00 0.66 0.66 99 1012.2
20260903124102 20 146 0.0 0.0 0.00 0.66 0.66 99 1012.1
20260903123602 20 146 0.0 0.0 0.00 0.66 0.66 99 1012.4
20260903123100 20 146 0.0 0.0 0.00 0.66 0.66 99 1011.9
20260903122555 20 147 0.0 0.0 0.00 0.66 0.66 99 1012.3
20260903122055 20 137 0.0 0.0 0.00 0.66 0.66 99 1012.4
20260903121549 20 156 0.0 0.0 0.18 0.66 0.66 99 1012.2
20260903121045 19 134 0.0 0.0 0.66 0.66 0.66 99 1012.3
20260903120544 19 135 0.0 0.0 0.48 0.64 0.64 99 1012.6
20260903120039 19 140 0.0 0.0 0.00 0.56 0.56 99 1012.4
20260903115537 19 139 0.0 0.0 0.00 0.56 0.56 99 1012.5
20260903115032 19 139 0.0 0.0 0.00 0.56 0.56 99 1012.7
20260903114527 19 139 0.0 0.0 0.00 0.56 0.56 99 1012.5
20260903114023 19 139 0.0 0.0 0.00 0.56 0.56 99 1012.7
20260903113518 19 141 0.0 0.0 0.00 0.56 0.56 99 1012.5
20260903113015 19 141 0.0 0.0 0.00 0.56 0.56 99 1012.7
20260903112510 19 141 0.0 0.0 0.00 0.56 0.56 99 1012.5
20260903112009 19 141 0.0 0.0 0.00 0.56 0.56 99 1012.7
20260903111503 19 141 0.0 0.0 0.00 0.56 0.56 99 1012.2
20260903111000 19 141 0.0 0.0 0.00 0.56 0.56 99 1012.4
20260903110455 19 142 0.0 0.0 0.00 0.56 0.56 99 1012.4
20260903105949 19 142 0.0 0.0 0.00 0.56 0.56 99 1012.5
20260903105445 19 142 0.0 0.0 0.00 0.56 0.56 99 1012.6
20260903104944 19 142 0.0 0.0 0.00 0.56 0.56 99 1012.2
20260903104444 19 321 0.0 0.0 0.00 0.56 0.56 99 1012.6
20260903103941 19 268 1.6 1.6 0.00 0.56 0.56 99 1012.5
20260903103436 19 152 0.0 1.6 0.00 0.56 0.56 99 1012.4
20260903102932 19 141 0.0 0.0 0.00 0.56 0.56 99 1012.7
20260903102427 19 356 0.0 0.0 0.00 0.56 0.56 99 1012.6
20260903101926 19 148 0.0 0.0 0.00 0.56 0.56 99 1012.4
20260903101421 19 117 0.0 0.0 0.00 0.56 0.56 99 1012.3
20260903100916 19 22 0.0 0.0 0.00 0.56 0.56 99 1012.5
20260903100411 19 268 0.0 0.0 0.00 0.56 0.56 99 1012.5
20260903095908 19 127 0.0 0.0 0.00 0.56 0.56 99 1012.2
20260903095403 19 194 0.0 1.6 0.00 0.56 0.56 99 1012.2
20260903094857 19 301 1.6 3.2 0.00 0.56 0.56 99 1012.3
20260903094352 19 359 0.0 0.0 0.00 0.56 0.56 99 1012.1
20260903093848 19 274 0.0 1.6 0.00 0.56 0.56 99 1012.1
20260903093342 19 273 0.0 1.6 0.00 0.56 0.56 99 1012.3
20260903092838 19 338 0.0 0.0 0.00 0.56 0.56 99 1012.0
20260903092332 19 264 0.0 0.0 0.00 0.56 0.56 99 1012.2
20260903091831 19 329 0.0 0.0 0.00 0.56 0.56 99 1012.2
20260903091325 19 294 0.0 1.6 0.00 0.56 0.56 99 1012.2
20260903090821 19 274 1.6 1.6 0.00 0.56 0.56 99 1012.3
20260903090320 19 252 0.0 1.6 0.00 0.56 0.56 99 1012.2
20260903085818 19 270 1.6 1.6 0.00 0.56 0.56 99 1012.3
20260903085313 19 230 0.0 1.6 0.00 0.56 0.56 99 1012.1
20260903084812 18 95 0.0 0.0 0.00 0.56 0.56 99 1012.1
20260903084311 18 253 1.6 1.6 0.00 0.56 0.56 99 1012.2
20260903083807 18 301 1.6 1.6 0.00 0.56 0.56 99 1012.0
20260903083302 18 32 0.0 0.0 0.00 0.56 0.56 99 1012.0
20260903082801 18 49 0.0 0.0 0.00 0.56 0.56 99 1012.3
20260903082256 18 206 0.0 0.0 0.00 0.56 0.56 99 1012.4
20260903081751 18 210 0.0 0.0 0.13 0.56 0.56 99 1012.4
20260903081247 18 14 0.0 1.6 0.13 0.56 0.56 99 1012.2
20260903080743 18 152 0.0 0.0 0.00 0.53 0.53 99 1012.4
20260903080240 18 230 0.0 0.0 0.00 0.53 0.53 99 1012.8
20260903075740 18 154 0.0 0.0 0.00 0.53 0.53 99 1012.9
20260903075235 18 172 0.0 0.0 0.00 0.53 0.53 99 1012.9
20260903074734 18 255 0.0 0.0 0.00 0.53 0.53 99 1013.2
20260903074231 18 52 0.0 0.0 0.00 0.53 0.53 99 1013.0
20260903073724 18 28 0.0 0.0 0.00 0.53 0.53 99 1013.1
20260903073220 18 15 0.0 0.0 0.00 0.53 0.53 99 1012.8
20260903072715 18 344 0.0 0.0 0.00 0.53 0.53 99 1013.0
20260903072212 18 12 0.0 0.0 0.00 0.53 0.53 99 1012.9
20260903071708 18 15 0.0 0.0 0.00 0.53 0.53 99 1012.9
20260903071203 18 26 0.0 0.0 0.00 0.53 0.53 99 1012.7
20260903070703 18 107 0.0 0.0 0.00 0.53 0.53 99 1012.8
20260903070159 18 231 1.6 1.6 0.00 0.53 0.53 99 1013.1
20260903065653 18 347 0.0 0.0 0.00 0.53 0.53 99 1012.9
20260903065147 18 73 0.0 0.0 0.00 0.53 0.53 99 1012.8
20260903064646 18 141 0.0 0.0 0.00 0.53 0.53 99 1013.1
20260903064142 18 60 0.0 0.0 0.00 0.53 0.53 99 1013.1
20260903063637 18 6 0.0 0.0 0.00 0.53 0.53 99 1013.2
20260903063132 18 323 0.0 0.0 0.00 0.53 0.53 99 1013.1
20260903062628 18 153 0.0 0.0 0.00 0.53 0.53 99 1013.1
20260903062124 18 19 0.0 0.0 0.00 0.53 0.53 99 1013.0
20260903061618 18 81 0.0 0.0 0.00 0.53 0.53 99 1013.2
20260903061118 18 26 0.0 0.0 0.18 0.53 0.53 99 1013.7
20260903060613 18 125 0.0 0.0 0.18 0.53 0.53 99 1013.6
20260903060108 18 88 0.0 0.0 0.00 0.51 0.51 99 1013.8
20260903055606 18 83 0.0 0.0 0.13 0.51 0.51 99 1014.1
20260903055104 18 76 0.0 0.0 0.30 0.51 0.51 99 1014.3
20260903054559 18 59 0.0 0.0 0.18 0.48 0.48 99 1014.7
20260903054055 18 43 0.0 0.0 0.13 0.46 0.46 99 1014.6
20260903053550 18 287 1.6 3.2 0.30 0.46 0.46 99 1013.9
20260903053047 18 103 0.0 0.0 0.30 0.43 0.43 99 1013.4
20260903052542 18 112 0.0 0.0 0.30 0.41 0.41 99 1014.3
20260903052038 18 115 0.0 0.0 0.48 0.38 0.38 99 1014.6
20260903051537 18 90 0.0 0.0 0.61 0.36 0.36 99 1015.1
20260903051033 18 93 0.0 0.0 0.97 0.33 0.33 99 1015.3
20260903050532 18 99 0.0 0.0 1.27 0.28 0.28 99 1015.7
20260903050028 18 193 0.0 0.0 0.71 0.18 0.18 99 1016.1
20260903045527 18 295 1.6 1.6 0.30 0.08 0.08 99 1016.4
20260903045024 18 346 1.6 1.6 0.30 0.05 0.05 99 1016.1
20260903044520 18 345 0.0 1.6 0.13 0.03 0.03 99 1015.6
20260903044015 18 21 0.0 0.0 0.00 0.00 0.00 99 1015.7
20260903043510 18 272 0.0 0.0 0.00 0.00 0.00 99 1015.5
20260903043010 18 255 0.0 0.0 0.00 0.00 0.00 99 1015.6
20260903042505 18 144 0.0 0.0 0.00 0.00 0.00 99 1015.4
20260903042000 18 144 0.0 0.0 0.00 0.00 0.00 99 1015.6
20260903041457 18 155 0.0 0.0 0.00 0.00 0.00 99 1015.2
20260903040952 18 189 0.0 0.0 0.00 0.00 0.00 99 1015.4
20260903040450 18 184 0.0 0.0 0.00 0.00 0.00 99 1015.7